Flag for Russia Weather past 2 weeks in Rostov, Russia

Now
81 °F

Passing clouds.


Feels Like: 81 °F
Forecast: 59 / 89 °F
Wind: 3 mph from Northeast

Location: Rostov-Na-Donu

Current Time: Aug 21, 2014 at 11:08:53 AM

Latest Report: Aug 21, 2014 at 10:30 AM


Visibility: N/A

Pressure: 30.01 "Hg

Humidity: 48%

Dew point: 59 °F

Location of RostovLocation

Historic Weather in Rostov — Graph

°F

Rostov temperature yesterday

Maximum temperature yesterday: 84 °F (at 4:30 PM)
Minimum temperature yesterday: 59 °F (at 6:00 AM)
Average temperature yesterday: 72 °F

Past Weeks' High & Low Weather Summary

 TemperatureHumidityPressure
High100 °F (Aug 15, 2:00 PM)88% (Aug 7, 7:00 AM)30.04 "Hg (Aug 7, 7:00 AM)
Low59 °F (Aug 20, 6:00 AM)13% (Aug 15, 2:30 PM)29.56 "Hg (Aug 18, 4:00 PM)
Average80 °F47%29.84 "Hg
* Reported Aug 6 10:00 AM — Aug 21 10:00 AM, Rostov, Weather by CustomWeather, © 2014

Note: Actual official high and low records may vary slightly from our data, if they occured in-between our weather recording intervals... More about our weather records

Advertising

Rostov weather history for previous 24 hours

 ConditionsComfort  
Time TempWeatherWind HumidityBarometerVisibility
10:00 AM
Aug 21
79 °FPassing clouds.3 mph51%30.04 "HgN/A
9:30 AM77 °FPassing clouds.3 mph54%30.04 "HgN/A
9:00 AM77 °FSunny.1 mph54%30.04 "Hg10 mi
8:30 AM75 °FSunny.1 mph57%30.01 "Hg10 mi
8:00 AM72 °FPassing clouds.3 mph61%30.01 "HgN/A
7:30 AM68 °FSunny.1 mph69%30.01 "Hg10 mi
7:00 AM70 °FPassing clouds.3 mph64%30.01 "HgN/A
6:30 AM66 °FClear.1 mph68%30.01 "Hg10 mi
6:00 AM68 °FClear.8 mph64%30.01 "Hg10 mi
5:30 AM70 °FClear.8 mph60%30.01 "Hg10 mi
5:00 AM70 °FClear.8 mph60%30.01 "Hg10 mi
4:30 AM68 °FClear.8 mph64%30.01 "Hg10 mi
3:30 AM70 °FClear.6 mph60%30.01 "Hg10 mi
3:00 AM70 °FClear.6 mph60%30.01 "Hg10 mi
2:30 AM72 °FClear.8 mph57%30.01 "Hg10 mi
2:00 AM73 °FClear.8 mph53%30.01 "Hg10 mi
1:30 AM73 °FClear.8 mph53%30.01 "Hg10 mi
12:30 AM73 °FClear.8 mph53%30.01 "Hg10 mi
12:00 AM73 °FClear.8 mph53%30.01 "Hg10 mi
11:30 PM
Aug 20
73 °FClear.8 mph53%30.01 "Hg10 mi
11:00 PM75 °FClear.8 mph50%30.01 "Hg10 mi
10:30 PM75 °FClear.6 mph54%30.01 "Hg10 mi
10:00 PM77 °FClear.6 mph47%30.01 "Hg10 mi
9:30 PM77 °FClear.6 mph51%30.01 "Hg10 mi
9:00 PM75 °FSunny.No wind57%30.01 "Hg10 mi
8:30 PM75 °FSunny.1 mph57%29.98 "Hg10 mi
8:00 PM81 °FScattered clouds.3 mph42%29.98 "HgN/A
7:30 PM81 °FScattered clouds.3 mph42%29.98 "HgN/A
7:00 PM82 °FPartly sunny.6 mph40%29.98 "HgN/A
6:30 PM84 °FBroken clouds.3 mph37%29.98 "HgN/A
6:00 PM82 °FPartly sunny.6 mph40%29.98 "HgN/A
5:30 PM84 °FPartly sunny.3 mph37%29.98 "HgN/A
5:00 PM84 °FPartly sunny.6 mph35%30.01 "HgN/A
4:30 PM84 °FPartly sunny.3 mph40%30.01 "HgN/A
4:00 PM82 °FPartly sunny.8 mph42%30.01 "HgN/A
3:30 PM81 °FPartly sunny.6 mph42%30.01 "HgN/A
3:00 PM82 °FPartly sunny.6 mph42%30.01 "HgN/A
2:30 PM82 °FPartly sunny.6 mph42%30.01 "HgN/A
2:00 PM81 °FPartly sunny.6 mph48%30.04 "HgN/A
1:30 PM79 °FScattered clouds.6 mph48%30.04 "HgN/A
1:00 PM81 °FScattered clouds.3 mph48%30.04 "HgN/A
12:30 PM77 °FScattered clouds.6 mph54%30.04 "HgN/A
12:00 PM77 °FScattered clouds.6 mph54%30.04 "HgN/A
11:30 AM73 °FScattered clouds.8 mph61%30.04 "HgN/A
11:00 AM72 °FScattered clouds.6 mph65%30.04 "HgN/A
Weather by CustomWeather, © 2014

See weather overviewHow to use our weather pages